• In Belarus
  • List of Countries
  • For 7 days
  • Water Temperature
  • Satellite Maps
  • Weather Map
  • Weather Widgets
  • user-avatar
    Login

    Hourly Weather Malanje

    Today, 27 June, Thursday

    Time Temperature Precipitation Wind Pressure Humidity
    00:00 +16°C° 0 mm 1 mps 666 mmHg 60%
    01:00 +15°C° 0 mm 1 mps 665 mmHg 69%
    02:00 +15°C° 0 mm 1 mps 665 mmHg 74%
    03:00 +14°C° 0 mm 1 mps 665 mmHg 78%
    04:00 +13°C° 0 mm 1 mps 665 mmHg 83%
    05:00 +14°C° 0 mm 1 mps 665 mmHg 80%
    06:00 +14°C° 0 mm 1 mps 666 mmHg 78%
    07:00 +14°C° 0 mm 1 mps 666 mmHg 75%
    08:00 +19°C° 0 mm 1 mps 667 mmHg 59%
    09:00 +23°C° 0 mm 1 mps 668 mmHg 43%
    10:00 +27°C° 0 mm 2 mps 669 mmHg 28%
    11:00 +29°C° 0 mm 2 mps 669 mmHg 24%
    12:00 +31°C° 0 mm 2 mps 668 mmHg 20%
    13:00 +33°C° 0 mm 1 mps 668 mmHg 16%
    14:00 +33°C° 0 mm 1 mps 668 mmHg 16%
    15:00 +33°C° 0 mm 1 mps 667 mmHg 16%
    16:00 +30°C° 0 mm 0 mps 666 mmHg 16%
    17:00 +27°C° 0 mm 0 mps 666 mmHg 20%
    18:00 +26°C° 0 mm 1 mps 666 mmHg 24%
    19:00 +23°C° 0 mm 1 mps 665 mmHg 28%
    20:00 +22°C° 0 mm 1 mps 666 mmHg 34%
    21:00 +20°C° 0 mm 1 mps 666 mmHg 40%
    22:00 +19°C° 0 mm 1 mps 666 mmHg 45%
    23:00 +18°C° 0 mm 1 mps 666 mmHg 53%

    Tomorrow, 28 June, Friday

    Time Temperature Precipitation Wind Pressure Humidity
    00:00 +18°C° 0 mm 1 mps 665 mmHg 61%
    01:00 +16°C° 0 mm 1 mps 665 mmHg 69%
    02:00 +15°C° 0 mm 1 mps 665 mmHg 75%
    03:00 +14°C° 0 mm 1 mps 664 mmHg 80%
    04:00 +13°C° 0 mm 1 mps 664 mmHg 86%
    05:00 +14°C° 0 mm 1 mps 665 mmHg 84%
    06:00 +15°C° 0 mm 1 mps 666 mmHg 82%
    07:00 +15°C° 0 mm 1 mps 666 mmHg 79%
    08:00 +20°C° 0 mm 1 mps 667 mmHg 63%
    09:00 +24°C° 0 mm 1 mps 668 mmHg 46%
    10:00 +27°C° 0 mm 2 mps 668 mmHg 29%
    11:00 +29°C° 0 mm 2 mps 668 mmHg 25%
    12:00 +31°C° 0 mm 2 mps 668 mmHg 21%
    13:00 +34°C° 0 mm 2 mps 668 mmHg 16%
    14:00 +34°C° 0 mm 2 mps 667 mmHg 16%
    15:00 +32°C° 0 mm 2 mps 666 mmHg 16%
    16:00 +32°C° 0 mm 2 mps 666 mmHg 16%
    17:00 +29°C° 0 mm 2 mps 665 mmHg 21%
    18:00 +26°C° 0 mm 1 mps 665 mmHg 25%
    19:00 +23°C° 0 mm 1 mps 665 mmHg 29%
    20:00 +22°C° 0 mm 1 mps 665 mmHg 33%
    21:00 +21°C° 0 mm 1 mps 665 mmHg 37%
    22:00 +20°C° 0 mm 1 mps 665 mmHg 41%
    23:00 +19°C° 0 mm 1 mps 665 mmHg 53%

    Day after tomorrow, 29 June, Saturday

    Time Temperature Precipitation Wind Pressure Humidity
    00:00 +18°C° 0 mm 1 mps 665 mmHg 65%
    01:00 +15°C° 0 mm 1 mps 665 mmHg 76%
    02:00 +15°C° 0 mm 1 mps 664 mmHg 81%
    03:00 +14°C° 0 mm 1 mps 664 mmHg 86%
    04:00 +13°C° 0 mm 0 mps 664 mmHg 91%
    05:00 +13°C° 0 mm 0 mps 665 mmHg 86%
    06:00 +14°C° 0 mm 0 mps 666 mmHg 82%
    07:00 +14°C° 0 mm 0 mps 666 mmHg 77%
    08:00 +20°C° 0 mm 1 mps 667 mmHg 60%
    09:00 +24°C° 0 mm 1 mps 668 mmHg 42%
    10:00 +28°C° 0 mm 1 mps 669 mmHg 24%
    11:00 +30°C° 0 mm 1 mps 669 mmHg 21%
    12:00 +32°C° 0 mm 1 mps 668 mmHg 18%
    13:00 +34°C° 0 mm 1 mps 668 mmHg 16%
    14:00 +34°C° 0 mm 2 mps 667 mmHg 16%
    15:00 +34°C° 0 mm 2 mps 667 mmHg 16%
    16:00 +32°C° 0 mm 2 mps 666 mmHg 17%
    17:00 +29°C° 0 mm 2 mps 666 mmHg 21%
    18:00 +26°C° 0 mm 1 mps 666 mmHg 25%
    19:00 +23°C° 0 mm 1 mps 665 mmHg 29%
    20:00 +22°C° 0 mm 1 mps 666 mmHg 37%
    21:00 +21°C° 0 mm 1 mps 666 mmHg 45%
    22:00 +18°C° 0 mm 2 mps 666 mmHg 53%
    23:00 +18°C° 0 mm 2 mps 666 mmHg 62%

    30 June, Sunday

    Time Temperature Precipitation Wind Pressure Humidity
    00:00 +17°C° 0 mm 2 mps 665 mmHg 70%
    01:00 +16°C° 0 mm 2 mps 665 mmHg 79%
    02:00 +15°C° 0 mm 1 mps 665 mmHg 83%
    03:00 +15°C° 0 mm 1 mps 665 mmHg 88%
    04:00 +13°C° 0 mm 0 mps 665 mmHg 92%
    05:00 +14°C° 0 mm 1 mps 666 mmHg 90%
    06:00 +15°C° 0 mm 1 mps 666 mmHg 87%
    07:00 +15°C° 0 mm 1 mps 667 mmHg 85%
    08:00 +20°C° 0 mm 1 mps 668 mmHg 66%
    09:00 +24°C° 0 mm 2 mps 669 mmHg 46%
    10:00 +28°C° 0 mm 2 mps 669 mmHg 27%
    11:00 +30°C° 0 mm 2 mps 669 mmHg 23%
    12:00 +32°C° 0 mm 2 mps 669 mmHg 20%
    13:00 +34°C° 0 mm 1 mps 669 mmHg 16%
    14:00 +34°C° 0 mm 1 mps 668 mmHg 16%
    15:00 +33°C° 0 mm 1 mps 667 mmHg 16%
    16:00 +33°C° 0 mm 1 mps 667 mmHg 16%
    17:00 +30°C° 0 mm 1 mps 667 mmHg 20%
    18:00 +27°C° 0 mm 1 mps 666 mmHg 23%
    19:00 +24°C° 0 mm 1 mps 666 mmHg 27%
    20:00 +23°C° 0 mm 1 mps 666 mmHg 34%
    21:00 +21°C° 0 mm 1 mps 666 mmHg 41%
    22:00 +20°C° 0 mm 1 mps 666 mmHg 48%
    23:00 +19°C° 0 mm 1 mps 666 mmHg 57%

    1 July, Monday

    Time Temperature Precipitation Wind Pressure Humidity
    00:00 +18°C° 0 mm 1 mps 665 mmHg 67%
    01:00 +16°C° 0 mm 1 mps 665 mmHg 76%
    02:00 +16°C° 0 mm 1 mps 665 mmHg 79%
    03:00 +15°C° 0 mm 1 mps 665 mmHg 82%
    04:00 +15°C° 0 mm 1 mps 665 mmHg 86%
    05:00 +15°C° 0 mm 1 mps 665 mmHg 80%
    06:00 +16°C° 0 mm 1 mps 665 mmHg 75%
    07:00 +16°C° 0 mm 2 mps 666 mmHg 69%
    08:00 +20°C° 0 mm 2 mps 667 mmHg 53%
    09:00 +25°C° 0 mm 3 mps 668 mmHg 37%
    10:00 +29°C° 0 mm 4 mps 669 mmHg 21%
    11:00 +31°C° 0 mm 3 mps 668 mmHg 19%
    12:00 +33°C° 0 mm 3 mps 668 mmHg 16%
    13:00 +35°C° 0 mm 2 mps 667 mmHg 14%
    14:00 +35°C° 0 mm 2 mps 667 mmHg 13%
    15:00 +35°C° 0 mm 2 mps 666 mmHg 13%
    16:00 +34°C° 0 mm 1 mps 666 mmHg 12%
    17:00 +31°C° 0 mm 1 mps 665 mmHg 16%
    18:00 +27°C° 0 mm 1 mps 665 mmHg 19%
    19:00 +24°C° 0 mm 1 mps 665 mmHg 22%
    20:00 +23°C° 0 mm 1 mps 665 mmHg 24%
    21:00 +22°C° 0 mm 1 mps 665 mmHg 25%
    22:00 +21°C° 0 mm 1 mps 665 mmHg 27%
    23:00 +20°C° 0 mm 1 mps 665 mmHg 31%

    2 July, Tuesday

    Time Temperature Precipitation Wind Pressure Humidity
    00:00 +19°C° 0 mm 1 mps 665 mmHg 35%
    01:00 +18°C° 0 mm 1 mps 664 mmHg 39%
    02:00 +18°C° 0 mm 1 mps 664 mmHg 39%
    03:00 +16°C° 0 mm 1 mps 664 mmHg 40%
    04:00 +16°C° 0 mm 1 mps 664 mmHg 41%
    05:00 +16°C° 0 mm 1 mps 665 mmHg 40%
    06:00 +16°C° 0 mm 2 mps 665 mmHg 39%
    07:00 +16°C° 0 mm 2 mps 665 mmHg 38%
    08:00 +20°C° 0 mm 3 mps 666 mmHg 31%
    09:00 +25°C° 0 mm 4 mps 667 mmHg 24%
    10:00 +29°C° 0 mm 4 mps 668 mmHg 18%
    11:00 +30°C° 0 mm 4 mps 667 mmHg 16%
    12:00 +33°C° 0 mm 4 mps 667 mmHg 14%
    13:00 +35°C° 0 mm 3 mps 666 mmHg 13%
    14:00 +34°C° 0 mm 3 mps 666 mmHg 13%
    15:00 +34°C° 0 mm 3 mps 665 mmHg 13%
    16:00 +34°C° 0 mm 2 mps 665 mmHg 13%
    17:00 +30°C° 0 mm 2 mps 665 mmHg 16%
    18:00 +27°C° 0 mm 2 mps 665 mmHg 19%
    19:00 +24°C° 0 mm 1 mps 665 mmHg 23%
    20:00 +23°C° 0 mm 1 mps 665 mmHg 24%
    21:00 +22°C° 0 mm 1 mps 665 mmHg 25%
    22:00 +21°C° 0 mm 1 mps 665 mmHg 26%
    23:00 +20°C° 0 mm 1 mps 665 mmHg 28%
    Show more